Location: Wapato
(46.4478°N, 120.4212°W)
Time: 10:14:21
(UTC+00:00)

Injun/Solrad 3 - Pass Details

Date: 14 May 2026
Orbit: 867 x 989 km, 66.8° (Epoch: 10 June)

Event Time Altitude Azimuth Distance (km) Brightness Sun altitude
Rises 05:14:42 0° 321° (NW) 3,641 12.9 -15.2°
Reaches altitude 10° 05:18:56 10° 348° (NNW) 2,719 11.3 -15.7°
Maximum altitude 05:21:50 13° 15° (NNE) 2,502 10.6 -16.0°
Drops below altitude 10° 05:24:44 10° 42° (NE) 2,742 10.5 -16.3°
Sets 05:29:03 0° 69° (ENE) 3,700 10.9 -16.7°
